QPF
0.00 0.00 0.00 0.00 0.00 0.00 0.00 0.00 0.00 0.00 0.00 0.01 0.00 0.00 0.00 0.00 0.00 0.00 0.00 0.00 0.00 0.00 0.00 0.00 0.00 0.00 0.00 0.00 0.00 0.00 0.00 0.00 0.00 0.00 0.00 0.00 0.00 0.00 0.00 0.00 0.00 0.00 0.00 0.00
0.00 0.00 0.00 0.00 0.00 0.00 0.00 0.00 0.00 0.00 0.01 0.02 0.00 0.00 0.00 0.00 0.00 0.00 0.00 0.00 0.00 0.00 0.00 0.00 0.00 0.00 0.00 0.00 0.00 0.00 0.00 0.00 0.00 0.00 0.00 0.00 0.00 0.00 0.00 0.00 0.00 0.00 0.00 0.00
0.00 0.00 0.00 0.00 0.00 0.00 0.00 0.00 0.00 0.00 0.02 0.03 0.02 0.00 0.00 0.00 0.00 0.00 0.00 0.00 0.00 0.00 0.00 0.00 0.00 0.00 0.00 0.00 0.00 0.00 0.00 0.00 0.00 0.00 0.00 0.00 0.00 0.00 0.00 0.00 0.00 0.00 0.00 0.00
0.00 0.00 0.00 0.00 0.00 0.00 0.00 0.00 0.00 0.00 0.05 0.02 0.04 0.01 0.00 0.00 0.00 0.00 0.00 0.00 0.00 0.00 0.00 0.00 0.00 0.00 0.00 0.00 0.00 0.00 0.00 0.00 0.00 0.00 0.00 0.00 0.00 0.00 0.00 0.00 0.00 0.00 0.00 0.00
0.01 0.00 0.00 0.00 0.00 0.00 0.00 0.00 0.00 0.01 0.14 0.23 0.04 0.02 0.00 0.00 0.00 0.00 0.00 0.00 0.00 0.00 0.00 0.00 0.00 0.00 0.00 0.00 0.00 0.00 0.00 0.00 0.00 0.00 0.00 0.00 0.00 0.00 0.00 0.00 0.00 0.00 0.00 0.00
0.01 0.00 0.00 0.00 0.00 0.01 0.00 0.00 0.00 0.05 0.16 0.35 0.29 0.06 0.00 0.00 0.00 0.00 0.00 0.00 0.00 0.00 0.00 0.00 0.00 0.00 0.00 0.00 0.00 0.00 0.00 0.00 0.00 0.00 0.00 0.00 0.00 0.00 0.00 0.00 0.00 0.00 0.00 0.00
0.03 0.00 0.00 0.00 0.01 0.02 0.01 0.03 0.04 0.16 0.45 0.27 0.06 0.22 0.04 0.00 0.00 0.00 0.00 0.00 0.00 0.00 0.00 0.00 0.00 0.00 0.00 0.00 0.00 0.00 0.00 0.00 0.00 0.00 0.00 0.00 0.00 0.00 0.00 0.00 0.00 0.00 0.00 0.00
0.01 0.00 0.00 0.00 0.00 0.02 0.01 0.03 0.13 0.09 0.22 0.13 0.03 0.06 0.01 0.00 0.00 0.00 0.00 0.00 0.00 0.00 0.00 0.00 0.00 0.00 0.00 0.00 0.00 0.00 0.00 0.00 0.00 0.00 0.00 0.00 0.00 0.00 0.00 0.00 0.00 0.00 0.00 0.00
0.01 0.03 0.01 0.00 0.00 0.05 0.04 0.08 0.19 0.26 0.06 0.13 0.08 0.02 0.00 0.00 0.00 0.00 0.00 0.00 0.00 0.00 0.00 0.00 0.00 0.00 0.00 0.00 0.00 0.00 0.00 0.00 0.00 0.00 0.00 0.00 0.00 0.00 0.00 0.00 0.00 0.00 0.00 0.00
0.01 0.11 0.11 0.11 0.06 0.08 0.07 0.06 0.30 0.52 0.19 0.08 0.03 0.00 0.00 0.00 0.00 0.00 0.00 0.00 0.00 0.00 0.00 0.00 0.00 0.00 0.00 0.00 0.00 0.00 0.00 0.00 0.00 0.00 0.00 0.00 0.00 0.00 0.00 0.00 0.00 0.00 0.00 0.00
0.03 0.09 0.10 0.33 0.13 0.06 0.09 0.12 0.30 0.38 0.20 0.04 0.01 0.00 0.00 0.00 0.00 0.00 0.00 0.00 0.00 0.00 0.00 0.00 0.00 0.00 0.00 0.00 0.00 0.00 0.00 0.00 0.00 0.00 0.00 0.00 0.00 0.00 0.00 0.00 0.00 0.00 0.00 0.00
0.07 0.09 0.06 0.08 0.09 0.01 0.05 0.13 0.09 0.41 0.23 0.05 0.00 0.00 0.00 0.00 0.00 0.00 0.00 0.00 0.00 0.00 0.00 0.00 0.00 0.00 0.00 0.00 0.00 0.00 0.00 0.00 0.00 0.00 0.00 0.00 0.00 0.00 0.00 0.00 0.00 0.00 0.00 0.00
0.08 0.11 0.06 0.08 0.05 0.08 0.14 0.21 0.11 0.23 0.27 0.02 0.00 0.00 0.00 0.00 0.00 0.00 0.00 0.00 0.00 0.00 0.00 0.00 0.00 0.00 0.00 0.00 0.00 0.00 0.00 0.00 0.00 0.00 0.00 0.00 0.00 0.00 0.00 0.00 0.00 0.00 0.00 0.00
0.28 0.16 0.15 0.22 0.10 0.04 0.09 0.16 0.19 0.20 0.12 0.01 0.00 0.00 0.00 0.00 0.00 0.00 0.00 0.00 0.00 0.00 0.00 0.00 0.00 0.00 0.00 0.00 0.00 0.00 0.00 0.00 0.00 0.00 0.00 0.00 0.00 0.00 0.00 0.00 0.00 0.00 0.00 0.00
0.21 0.36 0.49 0.24 0.05 0.01 0.02 0.09 0.09 0.05 0.01 0.01 0.00 0.00 0.00 0.00 0.00 0.00 0.00 0.00 0.00 0.00 0.00 0.00 0.00 0.00 0.00 0.00 0.00 0.00 0.00 0.00 0.00 0.00 0.00 0.00 0.00 0.00 0.00 0.00 0.00 0.00 0.00 0.00
0.03 0.16 0.21 0.10 0.01 0.03 0.02 0.03 0.00 0.00 0.00 0.00 0.00 0.00 0.00 0.00 0.00 0.00 0.00 0.00 0.00 0.00 0.00 0.00 0.00 0.00 0.00 0.00 0.00 0.00 0.00 0.00 0.00 0.00 0.00 0.00 0.00 0.00 0.00 0.00 0.00 0.00 0.00 0.00
0.00 0.03 0.06 0.02 0.01 0.00 0.00 0.00 0.00 0.00 0.00 0.00 0.00 0.00 0.00 0.00 0.00 0.00 0.00 0.00 0.00 0.00 0.00 0.00 0.00 0.00 0.00 0.00 0.00 0.00 0.00 0.00 0.00 0.00 0.00 0.00 0.00 0.00 0.00 0.00 0.00 0.00 0.00 0.00
0.00 0.00 0.00 0.00 0.00 0.00 0.00 0.00 0.00 0.00 0.00 0.00 0.00 0.00 0.00 0.00 0.00 0.00 0.00 0.00 0.00 0.00 0.00 0.00 0.00 0.00 0.00 0.00 0.00 0.00 0.00 0.00 0.00 0.00 0.00 0.00 0.00 0.00 0.00 0.00 0.00 0.00 0.00 0.00
0.00 0.00 0.01 0.00 0.00 0.00 0.00 0.00 0.00 0.00 0.00 0.00 0.00 0.00 0.00 0.00 0.00 0.00 0.00 0.00 0.00 0.00 0.00 0.00 0.00 0.00 0.00 0.00 0.00 0.00 0.00 0.00 0.00 0.00 0.00 0.00 0.00 0.00 0.00 0.00 0.00 0.00 0.00 0.00
0.00 0.00 0.00 0.00 0.00 0.00 0.00 0.00 0.00 0.00 0.00 0.00 0.00 0.00 0.00 0.00 0.00 0.00 0.00 0.00 0.00 0.00 0.00 0.00 0.00 0.00 0.00 0.00 0.00 0.00 0.00 0.00 0.00 0.00 0.00 0.00 0.00 0.00 0.00 0.00 0.00 0.00 0.00 0.00
0.00 0.00 0.00 0.00 0.00 0.00 0.00 0.00 0.00 0.00 0.00 0.00 0.00 0.00 0.00 0.00 0.00 0.00 0.00 0.00 0.00 0.00 0.00 0.00 0.00 0.00 0.00 0.00 0.00 0.00 0.00 0.00 0.00 0.00 0.00 0.00 0.00 0.00 0.00 0.00 0.00 0.00 0.00 0.00
0.00 0.00 0.00 0.00 0.00 0.00 0.00 0.00 0.00 0.00 0.00 0.00 0.00 0.00 0.00 0.00 0.00 0.00 0.00 0.00 0.00 0.00 0.00 0.00 0.00 0.00 0.00 0.00 0.00 0.00 0.00 0.00 0.00 0.00 0.00 0.00 0.00 0.00 0.00 0.00 0.00 0.00 0.00 0.00
0.00 0.00 0.00 0.00 0.00 0.00 0.00 0.00 0.00 0.00 0.00 0.00 0.00 0.00 0.00 0.00 0.00 0.00 0.00 0.00 0.00 0.00 0.00 0.00 0.00 0.00 0.00 0.00 0.00 0.00 0.00 0.00 0.00 0.00 0.00 0.00 0.00 0.00 0.00 0.00 0.00 0.00 0.00 0.00
0.00 0.00 0.00 0.00 0.00 0.00 0.00 0.00 0.00 0.00 0.00 0.00 0.00 0.00 0.00 0.00 0.00 0.00 0.00 0.00 0.00 0.00 0.00 0.00 0.00 0.00 0.00 0.00 0.00 0.00 0.00 0.00 0.00 0.00 0.00 0.00 0.00 0.00 0.00 0.00 0.00 0.00 0.00 0.00
0.00 0.00 0.00 0.00 0.00 0.00 0.00 0.00 0.00 0.00 0.00 0.00 0.00 0.00 0.00 0.00 0.00 0.00 0.00 0.00 0.00 0.00 0.00 0.00 0.00 0.00 0.00 0.00 0.00 0.00 0.00 0.00 0.00 0.00 0.00 0.00 0.00 0.00 0.00 0.00 0.00 0.00 0.00 0.00
0.00 0.00 0.00 0.00 0.00 0.00 0.00 0.00 0.00 0.00 0.00 0.00 0.00 0.00 0.00 0.00 0.00 0.00 0.00 0.00 0.00 0.00 0.00 0.00 0.00 0.00 0.00 0.00 0.00 0.00 0.00 0.00 0.00 0.00 0.00 0.00 0.00 0.00 0.00 0.00 0.00 0.00 0.00 0.00
MSLP
1013.59 1013.69 1013.79 1014.35 1013.99 1014.05 1013.85 1013.22 1012.30 1010.82 1010.11 1009.30 1008.24 1007.77 1007.02 1006.77 1006.67 1006.78 1006.94 1007.22 1007.71 1008.20 1008.38 1008.30 1008.52 1008.84 1009.14 1009.22 1009.32 1009.40 1009.50 1009.89 1010.12 1010.98 1011.86 1012.54 1013.33 1013.96 1014.51 1014.71 1014.96 1015.15 1015.25 1015.35
1014.26 1012.82 1013.67 1013.95 1014.22 1014.21 1014.03 1013.55 1011.95 1011.20 1010.36 1009.44 1008.28 1007.22 1006.36 1006.16 1005.89 1005.92 1006.18 1006.98 1007.72 1008.18 1008.46 1008.73 1009.00 1009.43 1009.58 1009.87 1009.91 1009.83 1010.10 1010.30 1010.76 1011.35 1012.14 1012.76 1013.66 1014.47 1014.99 1015.35 1015.58 1015.67 1015.73 1015.72
1013.30 1012.68 1012.76 1013.45 1013.72 1013.74 1013.32 1012.91 1012.22 1011.81 1010.78 1009.64 1008.84 1007.23 1005.99 1005.19 1005.06 1005.08 1005.13 1005.82 1007.00 1007.12 1008.22 1008.80 1009.46 1010.00 1010.20 1010.48 1010.45 1010.47 1010.63 1010.89 1011.33 1011.79 1012.44 1013.25 1014.09 1014.90 1015.58 1015.92 1016.13 1016.17 1015.99 1016.05
1013.15 1013.05 1013.08 1013.22 1012.87 1013.08 1012.73 1012.19 1012.35 1011.92 1011.82 1009.95 1008.62 1006.86 1005.15 1004.68 1004.27 1004.34 1004.61 1005.63 1006.43 1007.22 1007.99 1008.46 1009.42 1010.34 1010.50 1010.81 1010.89 1011.02 1011.17 1011.45 1011.78 1012.12 1012.80 1013.61 1014.36 1015.26 1015.70 1015.99 1016.30 1016.44 1016.27 1016.32
1012.12 1011.99 1012.34 1012.49 1011.44 1012.93 1011.81 1012.32 1011.99 1011.90 1011.35 1010.74 1009.06 1007.74 1004.49 1003.93 1003.78 1003.74 1004.07 1004.87 1005.62 1006.52 1007.13 1008.23 1009.18 1010.20 1010.70 1010.98 1011.33 1011.60 1011.77 1012.01 1012.24 1012.55 1013.15 1014.01 1014.81 1015.39 1015.65 1016.18 1016.52 1016.67 1016.76 1016.70
1012.13 1011.93 1011.97 1011.49 1011.80 1012.07 1012.08 1012.37 1012.07 1011.93 1011.60 1009.95 1008.55 1008.22 1004.35 1003.16 1002.42 1002.26 1003.25 1004.61 1005.22 1006.44 1007.41 1008.40 1009.06 1010.21 1011.04 1011.31 1011.70 1012.02 1012.31 1012.76 1012.80 1013.14 1013.67 1014.33 1015.06 1015.65 1016.12 1016.56 1016.85 1017.02 1017.16 1017.20
1012.02 1012.09 1011.94 1011.69 1011.76 1011.70 1012.27 1012.90 1012.34 1011.65 1011.07 1007.85 1007.16 1007.71 1004.83 1001.72 1000.92 1000.63 1002.08 1003.63 1004.84 1006.03 1007.16 1008.28 1009.11 1010.37 1011.19 1011.69 1011.99 1012.35 1012.67 1013.30 1013.44 1013.80 1014.34 1014.86 1015.42 1015.87 1016.44 1016.82 1017.13 1017.30 1017.32 1017.36
1011.89 1011.74 1011.23 1010.91 1010.99 1010.93 1011.17 1011.81 1011.45 1010.27 1008.38 1007.17 1006.71 1005.11 1002.74 1000.70 999.74 999.79 1001.26 1002.63 1004.40 1006.00 1007.09 1008.11 1009.03 1010.28 1011.21 1011.79 1012.09 1012.53 1013.05 1013.58 1013.92 1014.37 1014.92 1015.24 1015.64 1016.17 1016.64 1016.94 1017.22 1017.35 1017.36 1017.42
1011.09 1010.60 1009.74 1009.59 1009.68 1010.34 1010.06 1010.57 1009.89 1009.93 1007.75 1007.20 1005.42 1003.90 1001.75 1000.66 1000.19 1000.78 1002.04 1003.34 1004.60 1005.79 1006.94 1007.88 1009.04 1010.11 1011.14 1011.79 1012.24 1012.68 1013.28 1013.80 1014.33 1014.86 1015.29 1015.70 1016.08 1016.51 1016.96 1017.15 1017.22 1017.35 1017.38 1017.37
1010.27 1010.16 1009.31 1009.58 1009.94 1009.60 1009.04 1008.84 1010.40 1009.73 1007.88 1006.37 1004.09 1002.44 1001.06 1000.96 1000.87 1001.30 1002.30 1003.37 1004.64 1005.83 1006.87 1007.87 1008.84 1009.96 1010.96 1011.67 1012.27 1012.84 1013.40 1013.95 1014.59 1015.10 1015.57 1016.00 1016.41 1016.79 1017.03 1017.15 1017.32 1017.36 1017.41 1017.44
1009.59 1010.34 1009.58 1009.53 1007.81 1006.88 1008.02 1007.46 1008.24 1008.59 1007.35 1005.30 1003.69 1001.64 999.94 1000.06 1000.53 1001.30 1002.26 1003.13 1004.16 1005.30 1006.43 1007.58 1008.70 1009.82 1010.79 1011.70 1012.33 1012.95 1013.53 1014.17 1014.85 1015.36 1015.83 1016.26 1016.67 1016.90 1017.10 1017.26 1017.33 1017.43 1017.48 1017.49
1008.98 1009.16 1008.32 1007.28 1006.28 1005.74 1006.33 1006.47 1006.57 1006.86 1005.58 1004.93 1001.96 1001.38 999.62 999.83 1000.31 1001.09 1002.09 1002.95 1004.00 1005.10 1006.34 1007.49 1008.57 1009.70 1010.82 1011.76 1012.37 1013.01 1013.61 1014.30 1015.01 1015.53 1016.01 1016.49 1016.76 1016.98 1017.22 1017.34 1017.41 1017.46 1017.54 1017.59
1008.72 1008.32 1007.41 1005.74 1005.33 1004.07 1004.66 1004.96 1004.75 1004.74 1004.92 1002.63 1001.29 1001.23 1000.26 1000.10 1000.69 1001.24 1002.07 1003.21 1004.17 1005.24 1006.42 1007.53 1008.67 1009.72 1010.76 1011.62 1012.40 1013.09 1013.75 1014.50 1015.18 1015.61 1016.19 1016.70 1017.00 1017.18 1017.36 1017.46 1017.51 1017.56 1017.61 1017.57
1008.26 1007.34 1006.12 1004.59 1003.47 1002.59 1002.28 1003.01 1004.18 1004.62 1003.69 1001.39 1000.63 1000.73 1000.76 1000.91 1001.17 1001.74 1002.35 1003.12 1003.98 1005.00 1006.11 1007.42 1008.73 1009.74 1010.68 1011.56 1012.38 1013.19 1014.00 1014.62 1015.26 1015.81 1016.46 1016.90 1017.19 1017.31 1017.43 1017.53 1017.60 1017.59 1017.53 1017.50
1007.55 1006.24 1005.02 1003.89 1002.72 1002.27 1001.90 1001.79 1002.97 1003.67 1001.86 1000.13 1000.49 1000.27 1000.65 1000.96 1001.23 1001.58 1002.21 1003.26 1004.18 1005.13 1006.05 1007.00 1008.17 1009.39 1010.50 1011.53 1012.45 1013.31 1014.16 1014.80 1015.37 1016.08 1016.63 1017.03 1017.18 1017.30 1017.45 1017.54 1017.52 1017.47 1017.48 1017.45
1006.28 1005.09 1003.66 1001.99 1001.48 1001.50 1001.32 1000.99 1001.80 1001.69 1000.61 1000.11 1000.34 1000.15 1000.10 1000.67 1001.45 1002.06 1002.49 1003.19 1004.04 1004.98 1006.03 1007.10 1008.20 1009.25 1010.32 1011.29 1012.37 1013.40 1014.32 1015.00 1015.58 1016.27 1016.79 1017.05 1017.23 1017.39 1017.49 1017.48 1017.53 1017.56 1017.52 1017.42
1004.74 1004.42 1003.50 1002.59 1001.79 1001.47 1001.12 1000.31 1000.54 1000.18 999.80 999.67 1000.14 1000.27 1000.31 1001.49 1001.95 1002.35 1002.85 1003.26 1004.07 1005.01 1005.96 1007.02 1007.98 1009.03 1010.13 1011.17 1012.19 1013.49 1014.40 1015.13 1015.84 1016.43 1016.85 1017.12 1017.30 1017.50 1017.55 1017.61 1017.69 1017.73 1017.72 1017.57
1003.71 1003.96 1003.32 1002.71 1001.71 1001.16 999.73 998.96 998.93 999.22 999.23 999.68 999.94 1000.59 1001.00 1001.80 1002.87 1003.19 1003.13 1003.43 1004.28 1005.02 1006.01 1007.00 1007.97 1009.19 1010.32 1011.42 1012.57 1013.60 1014.53 1015.31 1015.95 1016.51 1016.90 1017.17 1017.33 1017.46 1017.56 1017.78 1017.98 1017.97 1017.77 1017.60
1003.11 1003.50 1003.52 1003.39 1002.52 1001.10 999.93 999.28 999.08 999.21 999.43 999.54 1000.18 1000.81 1001.77 1002.65 1002.95 1004.45 1004.34 1004.08 1004.73 1005.30 1006.28 1007.28 1008.24 1009.42 1010.75 1011.89 1012.97 1013.95 1014.92 1015.56 1016.21 1016.71 1017.02 1017.20 1017.32 1017.53 1017.80 1018.03 1018.11 1017.92 1017.74 1017.44
1002.81 1003.19 1003.82 1003.80 1003.16 1001.58 1000.05 999.32 999.06 999.21 1000.04 1000.05 1000.32 1000.87 1001.87 1002.76 1004.32 1005.94 1006.06 1005.69 1006.12 1006.63 1007.43 1008.38 1009.40 1010.46 1011.46 1012.73 1013.39 1014.29 1015.28 1015.91 1016.54 1016.86 1017.06 1017.18 1017.38 1017.64 1017.91 1018.09 1018.04 1017.75 1017.48 1017.15
1003.19 1003.50 1003.76 1003.58 1003.24 1001.47 999.98 999.40 999.26 999.99 1000.90 1000.43 1000.65 1001.06 1002.13 1003.24 1004.11 1005.75 1006.75 1007.14 1007.56 1008.15 1008.93 1009.68 1010.56 1011.49 1012.38 1013.14 1013.83 1014.84 1015.66 1016.34 1016.67 1016.90 1017.11 1017.29 1017.47 1017.69 1017.82 1017.87 1017.76 1017.57 1017.20 1017.01
1002.75 1003.32 1003.61 1003.79 1003.33 1001.89 999.85 999.90 1000.12 1000.66 1000.83 1001.22 1001.34 1001.84 1003.06 1004.23 1005.29 1006.54 1007.49 1008.22 1008.76 1009.40 1010.11 1010.68 1011.48 1012.45 1013.15 1013.71 1014.39 1015.49 1016.22 1016.60 1016.84 1017.10 1017.29 1017.48 1017.69 1017.74 1017.69 1017.80 1017.51 1017.21 1017.29 1017.18
1002.42 1001.94 1002.37 1002.42 1001.57 1000.65 1000.39 1000.46 1000.57 1000.80 1001.52 1002.36 1002.67 1003.47 1003.86 1005.13 1006.39 1007.34 1008.32 1008.94 1009.60 1010.19 1010.90 1011.60 1012.30 1013.22 1013.94 1014.44 1014.98 1015.93 1016.47 1016.77 1017.08 1017.35 1017.57 1017.78 1017.79 1017.80 1017.75 1017.64 1017.52 1017.46 1017.28 1016.91
1001.52 1001.28 1001.62 1001.89 1001.01 1000.99 1000.95 1000.95 1001.09 1001.45 1002.11 1002.88 1003.48 1004.23 1004.86 1005.96 1007.14 1008.08 1008.87 1009.63 1010.31 1010.98 1011.68 1012.37 1013.11 1013.99 1014.76 1015.13 1015.57 1016.06 1016.59 1016.88 1017.30 1017.62 1017.81 1017.92 1018.00 1017.87 1017.71 1017.65 1017.63 1017.48 1017.09 1016.62
1000.79 1001.05 1001.33 1001.55 1001.46 1001.43 1001.44 1001.53 1001.97 1002.50 1002.98 1003.69 1004.44 1004.97 1005.78 1006.42 1007.78 1008.49 1009.45 1010.22 1010.89 1011.55 1012.29 1012.94 1013.70 1014.49 1015.24 1015.59 1016.10 1016.52 1016.82 1017.17 1017.63 1017.86 1018.03 1018.08 1018.02 1017.99 1017.98 1017.89 1017.66 1017.35 1016.87 1016.40
1000.11 1000.22 1000.88 1000.30 1000.34 1000.60 1001.04 1001.81 1002.51 1003.06 1003.85 1004.34 1004.85 1006.02 1006.75 1007.17 1008.00 1008.97 1009.93 1010.64 1011.30 1012.04 1012.73 1013.49 1014.24 1014.91 1015.57 1015.98 1016.44 1016.81 1017.05 1017.43 1017.86 1018.03 1018.06 1018.06 1018.05 1018.06 1018.03 1017.85 1017.41 1017.02 1016.55 1016.14
Thickness
5551 5548 5547 5546 5556 5559 5562 5568 5579 5599 5614 5615 5628 5634 5654 5668 5668 5671 5678 5683 5683 5688 5690 5696 5699 5699 5698 5699 5701 5703 5703 5701 5702 5694 5686 5680 5671 5665 5659 5655 5652 5649 5646 5643
5530 5546 5543 5544 5542 5544 5547 5550 5571 5586 5600 5607 5620 5630 5654 5662 5668 5675 5680 5678 5675 5682 5683 5686 5689 5689 5689 5688 5690 5692 5692 5693 5690 5685 5678 5672 5664 5654 5648 5644 5641 5639 5635 5632
5525 5537 5542 5535 5533 5536 5544 5547 5563 5569 5587 5599 5604 5614 5641 5660 5670 5677 5683 5682 5679 5687 5680 5679 5678 5677 5678 5678 5681 5682 5682 5682 5679 5676 5670 5663 5653 5644 5637 5633 5630 5627 5625 5621
5515 5524 5524 5522 5530 5533 5534 5559 5559 5565 5564 5576 5602 5603 5634 5653 5663 5671 5676 5670 5677 5680 5677 5678 5674 5669 5670 5670 5671 5672 5672 5671 5670 5667 5661 5653 5644 5635 5630 5626 5620 5616 5614 5610
5514 5521 5515 5514 5539 5524 5544 5547 5554 5557 5562 5568 5587 5590 5630 5650 5656 5665 5672 5671 5677 5681 5680 5674 5671 5666 5665 5663 5660 5659 5660 5660 5659 5657 5651 5643 5633 5627 5623 5616 5610 5606 5602 5598
5503 5510 5509 5521 5521 5521 5535 5532 5541 5546 5551 5554 5580 5580 5614 5640 5662 5677 5675 5668 5676 5676 5671 5667 5666 5661 5655 5654 5651 5650 5649 5647 5647 5644 5639 5632 5624 5618 5611 5606 5600 5596 5590 5586
5489 5489 5499 5506 5506 5514 5509 5510 5522 5531 5536 5567 5593 5568 5604 5655 5671 5690 5679 5674 5676 5673 5667 5662 5660 5653 5647 5645 5643 5642 5640 5636 5635 5632 5626 5619 5613 5607 5601 5595 5589 5585 5581 5576
5472 5464 5490 5502 5505 5509 5509 5514 5522 5533 5560 5584 5591 5588 5628 5664 5681 5691 5685 5680 5673 5666 5662 5657 5653 5647 5641 5639 5637 5634 5631 5627 5624 5619 5613 5608 5603 5596 5590 5585 5579 5575 5571 5567
5471 5483 5505 5508 5511 5509 5513 5499 5543 5541 5571 5571 5592 5609 5645 5658 5668 5673 5672 5669 5666 5660 5656 5653 5647 5643 5635 5631 5629 5626 5622 5618 5613 5607 5601 5597 5591 5585 5579 5575 5571 5566 5562 5559
5488 5483 5503 5499 5497 5502 5511 5532 5514 5527 5566 5577 5591 5613 5631 5647 5657 5665 5665 5663 5659 5654 5651 5648 5644 5638 5632 5626 5622 5618 5615 5610 5603 5597 5591 5587 5581 5575 5571 5567 5562 5558 5553 5548
5494 5478 5490 5475 5508 5520 5511 5525 5534 5545 5563 5587 5589 5610 5648 5655 5662 5663 5662 5661 5657 5653 5650 5645 5640 5634 5628 5620 5617 5611 5607 5600 5593 5588 5582 5576 5571 5567 5562 5558 5553 5548 5543 5538
5491 5490 5500 5516 5529 5539 5541 5539 5548 5547 5570 5577 5609 5613 5653 5657 5662 5664 5660 5659 5655 5651 5646 5641 5636 5629 5621 5614 5609 5604 5598 5592 5585 5578 5573 5567 5563 5558 5553 5548 5543 5538 5532 5527
5494 5504 5516 5534 5540 5553 5549 5559 5572 5569 5570 5603 5609 5614 5647 5649 5654 5658 5657 5653 5650 5646 5640 5636 5629 5622 5615 5608 5602 5596 5589 5582 5576 5571 5565 5558 5553 5548 5542 5537 5532 5527 5521 5514
5500 5519 5538 5555 5565 5578 5580 5577 5566 5560 5579 5614 5620 5624 5638 5644 5648 5649 5651 5651 5649 5645 5640 5631 5623 5615 5608 5602 5596 5588 5580 5574 5568 5562 5554 5548 5542 5537 5532 5527 5521 5516 5510 5502
5507 5531 5540 5547 5561 5576 5584 5584 5569 5564 5605 5624 5623 5631 5634 5639 5643 5648 5650 5647 5644 5640 5636 5630 5622 5612 5603 5596 5588 5580 5571 5565 5559 5551 5543 5537 5532 5527 5522 5516 5510 5505 5497 5489
5521 5541 5554 5572 5586 5586 5585 5588 5592 5602 5620 5628 5626 5635 5646 5644 5641 5642 5643 5646 5643 5637 5632 5624 5617 5609 5600 5592 5582 5573 5563 5556 5549 5540 5532 5527 5522 5517 5511 5505 5499 5491 5483 5474
5547 5552 5563 5571 5583 5586 5583 5599 5601 5612 5625 5630 5620 5633 5641 5637 5640 5640 5637 5644 5638 5631 5625 5619 5614 5605 5595 5586 5576 5563 5554 5546 5537 5529 5523 5518 5512 5506 5500 5493 5486 5478 5468 5459
5555 5556 5570 5569 5582 5572 5605 5619 5622 5622 5629 5629 5635 5631 5639 5632 5624 5626 5636 5637 5633 5628 5622 5616 5609 5596 5586 5574 5564 5554 5545 5536 5528 5520 5514 5507 5502 5495 5488 5480 5471 5462 5453 5446
5568 5566 5568 5567 5571 5592 5606 5615 5617 5617 5620 5628 5627 5627 5620 5619 5624 5613 5616 5625 5622 5619 5612 5603 5595 5586 5574 5564 5554 5544 5533 5525 5517 5510 5503 5497 5491 5484 5475 5465 5456 5448 5441 5434
5571 5568 5566 5538 5559 5577 5603 5615 5621 5625 5606 5623 5627 5626 5624 5621 5610 5596 5599 5605 5602 5600 5595 5587 5578 5569 5560 5548 5542 5532 5521 5514 5505 5498 5493 5487 5480 5471 5461 5451 5443 5437 5431 5425
5563 5565 5558 5563 5565 5578 5605 5615 5618 5607 5606 5617 5623 5624 5621 5617 5611 5593 5585 5583 5581 5579 5573 5569 5562 5554 5545 5537 5530 5520 5510 5501 5495 5489 5482 5475 5467 5458 5448 5439 5433 5428 5423 5414
5568 5562 5563 5563 5564 5568 5608 5610 5609 5605 5612 5609 5606 5608 5599 5594 5589 5580 5574 5570 5569 5564 5558 5554 5547 5539 5531 5525 5518 5505 5496 5489 5484 5477 5470 5462 5453 5445 5438 5430 5424 5418 5409 5399
5567 5576 5572 5576 5584 5599 5600 5604 5607 5607 5604 5598 5595 5592 5592 5584 5576 5571 5563 5560 5556 5553 5547 5541 5536 5526 5517 5511 5504 5493 5485 5480 5472 5465 5457 5448 5440 5433 5427 5420 5413 5403 5395 5385
5578 5581 5581 5583 5593 5595 5596 5601 5604 5602 5595 5589 5589 5585 5584 5574 5567 5560 5555 5550 5547 5541 5535 5529 5521 5510 5501 5496 5490 5483 5476 5468 5460 5451 5442 5435 5428 5423 5415 5407 5399 5389 5379 5370
5577 5578 5581 5580 5584 5587 5591 5595 5589 5586 5586 5582 5577 5577 5571 5568 5558 5554 5547 5542 5536 5530 5522 5515 5507 5498 5489 5483 5476 5470 5463 5454 5444 5437 5430 5423 5418 5410 5402 5394 5384 5375 5363 5351
5579 5582 5580 5585 5591 5594 5591 5585 5582 5581 5575 5575 5573 5563 5559 5561 5554 5546 5537 5531 5525 5518 5511 5503 5494 5485 5478 5471 5464 5457 5450 5441 5432 5426 5420 5413 5407 5399 5390 5382 5373 5360 5349 5337